TimeCET,TemperatureF,Dew PointF,Humidity,Sea Level PressureIn,VisibilityMPH,Wind Direction,Wind SpeedMPH,Gust SpeedMPH,PrecipitationIn,Events,Conditions,WindDirDegrees,DateUTC
12:00 AM,51.8,39.2,62,30.04,6.2,Variable,2.3,-,N/A,,Scattered Clouds,0,2013-03-01 23:00:00
12:30 AM,51.8,39.2,62,30.01,6.2,South,4.6,-,N/A,,Scattered Clouds,180,2013-03-01 23:30:00
1:00 AM,52,36,44,30.03,9,NW,2.3,,,,Partly Cloudy,320,2013-03-02 00:00:00
1:00 AM,53.6,39.2,58,30.01,6.2,Variable,2.3,-,N/A,,Scattered Clouds,0,2013-03-02 00:00:00
1:30 AM,51.8,41.0,67,30.04,6.2,Variable,2.3,-,N/A,,Scattered Clouds,0,2013-03-02 00:30:00
2:00 AM,50.0,41.0,71,30.04,6.2,West,3.5,-,N/A,,Scattered Clouds,270,2013-03-02 01:00:00
2:30 AM,48.2,41.0,76,30.01,6.2,West,3.5,-,N/A,,Scattered Clouds,270,2013-03-02 01:30:00
3:00 AM,48.2,39.2,71,30.01,6.2,WNW,6.9,-,N/A,,Partly Cloudy,290,2013-03-02 02:00:00
3:30 AM,48.2,39.2,71,30.01,6.2,WNW,5.8,-,N/A,,Partly Cloudy,300,2013-03-02 02:30:00
4:00 AM,44.6,39.2,81,30.01,-9999.0,WNW,5.8,-,N/A,,Clear,290,2013-03-02 03:00:00
4:30 AM,44.6,39.2,81,30.01,-9999.0,West,8.1,-,N/A,,Clear,280,2013-03-02 03:30:00
5:00 AM,44.6,39.2,81,30.01,-9999.0,West,8.1,-,N/A,,Clear,280,2013-03-02 04:00:00
5:30 AM,44.6,39.2,81,30.01,-9999.0,WNW,8.1,-,N/A,,Clear,290,2013-03-02 04:30:00
6:00 AM,48.2,37.4,66,30.01,-9999.0,NW,6.9,-,N/A,,Clear,310,2013-03-02 05:00:00
6:30 AM,46.4,37.4,71,30.01,-9999.0,Variable,2.3,-,N/A,,Clear,0,2013-03-02 05:30:00
7:00 AM,45,35,57,30.03,12,NW,1.2,,,,Clear,310,2013-03-02 06:00:00
7:30 AM,44.6,37.4,76,30.04,-9999.0,WNW,5.8,-,N/A,,Clear,290,2013-03-02 06:30:00
8:00 AM,44.6,37.4,76,30.04,-9999.0,West,6.9,-,N/A,,Clear,280,2013-03-02 07:00:00
8:30 AM,46.4,39.2,76,30.04,-9999.0,WSW,4.6,-,N/A,,Clear,250,2013-03-02 07:30:00
9:00 AM,50.0,39.2,66,30.06,-9999.0,WSW,4.6,-,N/A,,Clear,250,2013-03-02 08:00:00
9:30 AM,53.6,41.0,62,30.06,-9999.0,West,3.5,-,N/A,,Clear,260,2013-03-02 08:30:00
10:00 AM,55.4,37.4,51,30.06,-9999.0,WSW,4.6,-,N/A,,Clear,240,2013-03-02 09:00:00
10:30 AM,57.2,39.2,51,30.09,-9999.0,SW,3.5,-,N/A,,Clear,230,2013-03-02 09:30:00
11:00 AM,59.0,37.4,45,30.09,-9999.0,WSW,3.5,-,N/A,,Clear,250,2013-03-02 10:00:00
11:30 AM,60.8,39.2,45,30.06,-9999.0,Variable,1.2,-,N/A,,Clear,0,2013-03-02 10:30:00
12:00 PM,60.8,37.4,42,30.06,-9999.0,Variable,2.3,-,N/A,,Clear,0,2013-03-02 11:00:00
12:30 PM,60.8,42.8,52,30.06,-9999.0,East,9.2,-,N/A,,Clear,90,2013-03-02 11:30:00
1:00 PM,60,34,25,30.09,12,East,11.5,,,,Clear,80,2013-03-02 12:00:00
1:00 PM,60.8,37.4,42,30.06,-9999.0,East,10.4,-,N/A,,Clear,80,2013-03-02 12:00:00
1:30 PM,59.0,37.4,45,30.06,-9999.0,East,11.5,-,N/A,,Clear,100,2013-03-02 12:30:00
2:00 PM,59.0,41.0,51,30.06,-9999.0,East,11.5,-,N/A,,Clear,90,2013-03-02 13:00:00
2:30 PM,59.0,41.0,51,30.06,-9999.0,East,11.5,-,N/A,,Clear,100,2013-03-02 13:30:00
3:00 PM,59.0,42.8,55,30.06,-9999.0,East,12.7,-,N/A,,Clear,90,2013-03-02 14:00:00
3:30 PM,59.0,42.8,55,30.06,-9999.0,ESE,10.4,-,N/A,,Clear,110,2013-03-02 14:30:00
4:00 PM,57.2,42.8,59,30.06,-9999.0,ESE,9.2,-,N/A,,Clear,110,2013-03-02 15:00:00
4:30 PM,59.0,37.4,45,30.06,-9999.0,ESE,8.1,-,N/A,,Clear,110,2013-03-02 15:30:00
5:00 PM,59.0,37.4,45,30.06,-9999.0,ESE,8.1,-,N/A,,Clear,120,2013-03-02 16:00:00
5:30 PM,59.0,39.2,48,30.06,-9999.0,ESE,6.9,-,N/A,,Clear,120,2013-03-02 16:30:00
6:00 PM,57.2,44.6,63,30.06,-9999.0,ESE,3.5,-,N/A,,Clear,110,2013-03-02 17:00:00
6:30 PM,55.4,46.4,72,30.06,-9999.0,ENE,4.6,-,N/A,,Clear,60,2013-03-02 17:30:00
7:00 PM,54,44,60,30.08,12,ENE,4.6,,,,Scattered Clouds,60,2013-03-02 18:00:00
7:00 PM,55.4,46.4,72,30.06,-9999.0,ENE,4.6,-,N/A,,Clear,60,2013-03-02 18:00:00
7:30 PM,53.6,46.4,77,30.06,-9999.0,Variable,2.3,-,N/A,,Clear,0,2013-03-02 18:30:00
8:00 PM,53.6,48.2,82,30.06,-9999.0,Variable,2.3,-,N/A,,Clear,0,2013-03-02 19:00:00
8:30 PM,53.6,46.4,77,30.06,-9999.0,NNE,3.5,-,N/A,,Clear,20,2013-03-02 19:30:00
9:00 PM,53.6,44.6,72,30.06,-9999.0,North,3.5,-,N/A,,Clear,10,2013-03-02 20:00:00
9:30 PM,53.6,44.6,72,30.09,-9999.0,North,4.6,-,N/A,,Clear,360,2013-03-02 20:30:00
10:00 PM,51.8,41.0,67,30.09,-9999.0,NNE,3.5,-,N/A,,Clear,20,2013-03-02 21:00:00
10:30 PM,51.8,41.0,67,30.09,-9999.0,North,3.5,-,N/A,,Clear,10,2013-03-02 21:30:00
11:00 PM,51.8,41.0,67,30.09,-9999.0,North,4.6,-,N/A,,Clear,10,2013-03-02 22:00:00
11:30 PM,51.8,39.2,62,30.09,-9999.0,North,5.8,-,N/A,,Clear,10,2013-03-02 22:30:00